Location: Bussy-Saint-Georges
(48.8410°N, 2.7017°E)
Time: 22:48:16
(UTC+00:00)

Cosmos 2344 - Pass Details

Date: 18 October 2021
Orbit: 1233 x 3009 km, 63.3° (Epoch: 07 December)

Event Time Altitude Azimuth Distance (km) Brightness Sun altitude
Rises 19:40:20 0° 317° (NW) 4,486 7.4 -27.9°
Reaches altitude 10° 19:42:55 10° 317° (NW) 3,637 6.7 -28.3°
Maximum altitude 19:51:58 81° 232° (SW) 1,854 4.3 -29.8°
Enters shadow 19:56:56 42° 152° (SSE) 2,711 4.8 -30.5°
